Flag for American Samoa Weather past 2 weeks in Pago Pago, American Samoa

Now
87 °F

Broken clouds.


Feels Like: 99 °F
Forecast: 79 / 86 °F
Wind: 10 mph from North

Location: Pago Pago / Int. Airp.

Current Time: Dec 28, 2014 at 1:25:56 PM

Latest Report: Dec 28, 2014 at 12:50 PM


Visibility: 11 mi

Pressure: 29.65 "Hg

Humidity: 75%

Dew point: 78 °F

Location of Pago PagoLocation

Historic Weather in Pago Pago — Graph

°F

Pago Pago temperature yesterday

Maximum temperature yesterday: 85 °F (at 1:56 PM)
Minimum temperature yesterday: 80 °F (at 11:58 AM)
Average temperature yesterday: 82 °F

Past Weeks' High & Low Weather Summary

 TemperatureHumidityPressure
High88 °F (Dec 24, 1:55 PM)95% (Dec 19, 1:50 AM)29.91 "Hg (Dec 19, 1:50 AM)
Low75 °F (Dec 19, 3:59 AM)65% (Dec 23, 12:50 PM)29.59 "Hg (Dec 27, 2:50 PM)
Average82 °F82%29.72 "Hg
* Reported Dec 13 11:50 AM — Dec 28 11:50 AM, Pago Pago, Weather by CustomWeather, © 2014

Note: Actual official high and low records may vary slightly from our data, if they occured in-between our weather recording intervals... More about our weather records

Advertising

Pago Pago weather history for previous 24 hours

 ConditionsComfort  
Time TempWeatherWind HumidityBarometerVisibility
11:50 AM
Dec 28
85 °FPartly sunny.12 mph79%29.67 "Hg12 mi
10:50 AM88 °FBroken clouds.15 mph75%29.70 "Hg12 mi
9:50 AM85 °FSprinkles. Broken clouds.12 mph80%29.71 "Hg12 mi
8:51 AM84 °FSprinkles. Partly sunny.8 mph86%29.71 "Hg12 mi
7:51 AM83 °FSprinkles. Mostly cloudy.7 mph86%29.70 "Hg10 mi
6:50 AM83 °FCloudy.12 mph83%29.68 "Hg12 mi
5:50 AM82 °FPassing clouds.12 mph85%29.65 "Hg10 mi
4:54 AM82 °FPartly cloudy.10 mph84%29.62 "Hg10 mi
3:58 AM83 °FOvercast.9 mph85%29.62 "Hg10 mi
2:52 AM83 °FOvercast.2 mph82%29.62 "Hg10 mi
1:55 AM83 °FOvercast.8 mph83%29.63 "Hg10 mi
12:55 AM82 °FOvercast.7 mph86%29.65 "Hg10 mi
11:54 PM
Dec 27
81 °FOvercast.No wind89%29.66 "Hg10 mi
10:55 PM82 °FMostly cloudy.6 mph88%29.66 "Hg10 mi
9:52 PM82 °FMostly cloudy.3 mph87%29.67 "Hg10 mi
8:52 PM81 °FSprinkles. Mostly cloudy.6 mph92%29.65 "Hg10 mi
7:50 PM81 °FMostly cloudy.2 mph92%29.62 "Hg10 mi
6:50 PM81 °FMostly cloudy.10 mph91%29.63 "Hg10 mi
5:55 PM81 °FSprinkles. Mostly cloudy.3 mph92%29.61 "Hg8 mi
4:50 PM82 °FSprinkles. Mostly cloudy.10 mph92%29.59 "Hg8 mi
3:50 PM82 °FMostly cloudy.2 mph90%29.59 "Hg10 mi
2:50 PM85 °FMostly cloudy.12 mph83%29.59 "Hg11 mi
1:56 PM85 °FCloudy.14 mph84%29.59 "Hg11 mi
Weather by CustomWeather, © 2014

See weather overviewHow to use our weather pages